Weather History for KHKY - February, 2013

Change the Weather History Date:

Wednesday, February 27, 2013

  Actual Average Record
Temperature  
Mean Temperature 44 °F -  
Max Temperature 55 °F 54 °F 75 °F (2011)
Min Temperature 34 °F 30 °F 9 °F (1963)
Degree Days  
Heating Degree Days 20    
Moisture  
Dew Point 35 °F    
Average Humidity 81    
Maximum Humidity 100    
Minimum Humidity 45    
Precipitation  
Precipitation 0.00 in - - ()
Sea Level Pressure  
Sea Level Pressure 29.69 in    
Wind  
Wind Speed 4 mph (WSW)    
Max Wind Speed 13 mph    
Max Gust Speed 20 mph    
Visibility 5 miles    
Events Fog    
Averages and records for this station are not official NWS values.
T = Trace of Precipitation, MM = Missing Value Source: NWS Daily Summary

Daily Weather History Graph

Daily Weather History Graph

Search for Another Location

Airport or City:

Trip Planner

Search our weather history database for the weather conditions in past years. The results will help you decide how hot, cold, wet, or windy it might be!

Date:

Astronomy

Feb. 27, 2013 Rise Set
Actual Time 6:57 AM EST 6:19 PM EST
Civil Twilight 6:32 AM EST 6:44 PM EST
Nautical Twilight 6:02 AM EST 7:14 PM EST
Astronomical Twilight 5:32 AM EST 7:44 PM EST
Moon 8:32 PM EST (2/27) 7:37 AM EST (2/27)
Length of Visible Light 12h 12m
Length of Day
11h 21m
Waning Gibbous, 96% of the Moon is Illuminated
Feb 27
Waning Gibbous
Mar 4
Last Quarter
Mar 11
New
Mar 19
First Quarter
Mar 27
Full

Hourly Weather History & Observations

Time (EST) Temp. Windchill Dew Point Humidity Pressure Visibility Wind Dir Wind Speed Gust Speed Precip Events Conditions
12:33 AM 37.4 °F 34.9 °F 37.4 °F 100% 29.63 in 1.2 mi SW 3.5 mph - N/A   Overcast
12:53 AM 37.0 °F 33.3 °F 36.0 °F 96% 29.63 in 1.0 mi WNW 4.6 mph - N/A   Mist
1:11 AM 37.4 °F 33.8 °F 35.6 °F 93% 29.65 in 3.0 mi WNW 4.6 mph - N/A   Overcast
1:32 AM 37.4 °F 32.8 °F 35.6 °F 93% 29.65 in 1.8 mi NNW 5.8 mph - N/A   Overcast
1:53 AM 37.0 °F 33.3 °F 36.0 °F 96% 29.63 in 1.8 mi NW 4.6 mph - N/A   Overcast
1:57 AM 37.4 °F 33.8 °F 35.6 °F 93% 29.64 in 3.0 mi NW 4.6 mph - N/A   Overcast
2:19 AM 35.6 °F 32.8 °F 35.6 °F 100% 29.64 in 10.0 mi NNW 3.5 mph - N/A   Overcast
2:53 AM 37.0 °F 34.5 °F 35.1 °F 93% 29.63 in 10.0 mi WSW 3.5 mph - N/A   Overcast
3:45 AM 37.4 °F 34.9 °F 35.6 °F 93% 29.65 in 1.8 mi WSW 3.5 mph - N/A   Overcast
3:53 AM 36.0 °F 33.3 °F 36.0 °F 100% 29.64 in 1.8 mi SW 3.5 mph - N/A   Overcast
4:02 AM 37.4 °F 34.9 °F 35.6 °F 93% 29.65 in 2.5 mi WSW 3.5 mph - N/A   Overcast
4:11 AM 37.4 °F - 35.6 °F 93% 29.66 in 4.0 mi Calm Calm - N/A   Overcast
4:23 AM 35.6 °F 32.8 °F 35.6 °F 100% 29.66 in 1.8 mi SW 3.5 mph - N/A   Overcast
4:53 AM 37.0 °F 34.5 °F 36.0 °F 96% 29.66 in 1.8 mi WSW 3.5 mph - N/A   Overcast
4:59 AM 37.4 °F 34.9 °F 35.6 °F 93% 29.68 in 3.0 mi NNW 3.5 mph - N/A   Overcast
5:08 AM 37.4 °F - 35.6 °F 93% 29.68 in 2.0 mi Calm Calm - N/A   Overcast
5:16 AM 37.4 °F - 35.6 °F 93% 29.68 in 1.5 mi Calm Calm - N/A   Overcast
5:53 AM 36.0 °F - 35.1 °F 97% 29.68 in 1.5 mi Calm Calm - N/A   Overcast
6:19 AM 35.6 °F - 35.6 °F 100% 29.70 in 0.5 mi Calm Calm - N/A Fog Fog
6:29 AM 35.6 °F - 33.8 °F 93% 29.70 in 0.2 mi Calm Calm - N/A Fog Fog
6:53 AM 34.0 °F - 33.1 °F 96% 29.69 in 0.2 mi Calm Calm - N/A Fog Fog
7:53 AM 34.0 °F 31.0 °F 33.1 °F 96% 29.72 in 0.2 mi SSE 3.5 mph - N/A Fog Fog
8:51 AM 37.4 °F 34.9 °F 37.4 °F 100% 29.77 in 0.5 mi South 3.5 mph - N/A Fog Fog
8:53 AM 37.0 °F 33.3 °F 36.0 °F 96% 29.76 in 0.5 mi South 4.6 mph - N/A Fog Fog
9:00 AM 37.4 °F 34.9 °F 37.4 °F 100% 29.77 in 2.5 mi South 3.5 mph - N/A   Mostly Cloudy
9:02 AM 37.4 °F - 37.4 °F 100% 29.77 in 4.0 mi Calm Calm - N/A   Scattered Clouds
9:53 AM 45.0 °F - 37.9 °F 76% 29.75 in 10.0 mi Calm Calm - N/A   Clear
10:53 AM 48.9 °F - 33.1 °F 54% 29.76 in 10.0 mi SW 5.8 mph - N/A   Clear
11:53 AM 50.0 °F - 32.0 °F 50% 29.75 in 10.0 mi Variable 4.6 mph - N/A   Clear
12:53 PM 50.0 °F - 33.1 °F 52% 29.73 in 10.0 mi Variable 4.6 mph - N/A   Partly Cloudy
1:53 PM 53.1 °F - 34.0 °F 48% 29.71 in 10.0 mi SW 9.2 mph - N/A   Clear
2:53 PM 55.0 °F - 34.0 °F 45% 29.69 in 10.0 mi SSW 12.7 mph 19.6 mph N/A   Clear
3:53 PM 55.9 °F - 35.1 °F 45% 29.68 in 10.0 mi SSW 12.7 mph - N/A   Clear
4:53 PM 54.0 °F - 35.1 °F 49% 29.68 in 10.0 mi South 9.2 mph 18.4 mph N/A   Clear
5:53 PM 52.0 °F - 35.1 °F 53% 29.68 in 10.0 mi SSW 12.7 mph - N/A   Clear
6:53 PM 48.0 °F - 35.1 °F 61% 29.70 in 10.0 mi South 3.5 mph - N/A   Clear
7:53 PM 48.0 °F - 34.0 °F 58% 29.70 in 10.0 mi South 6.9 mph - N/A   Clear
8:53 PM 45.0 °F 43.5 °F 34.0 °F 65% 29.69 in 10.0 mi SW 3.5 mph - N/A   Clear
9:53 PM 44.1 °F 41.5 °F 34.0 °F 68% 29.70 in 10.0 mi West 4.6 mph - N/A   Scattered Clouds
10:53 PM 46.0 °F 41.4 °F 33.1 °F 61% 29.71 in 10.0 mi NW 9.2 mph - 0.00 in   Mostly Cloudy
11:53 PM 43.0 °F 38.8 °F 30.0 °F 60% 29.70 in 10.0 mi West 6.9 mph - N/A   Clear